Regional Weather Roundup
Issued by NWS

Current Version | Previous Version | Text Only | Print | Product List | Glossary On
Versions: 1 2 3 4 5 6 7 8 9 10 11 12 13 14 15 16 17 18 19 20 21 22 23 24 25 26 27 28 29 30 31 32 33 34 35 36 37 38 39 40 41 42 43 44 45 46 47 48 49 50
000
ASUS45 KSLC 271610
RWRUT

UTAH REGIONAL WEATHER ROUNDUP
NATIONAL WEATHER SERVICE SALT LAKE CITY UT
1000 AM MDT WED MAY 27 2015

UTZ001>011-023>025-271700-

NORTHERN UTAH

CITY           SKY/WX    TMP DP  RH WIND       PRES   REMARKS
BRIGHAM CITY   CLOUDY    55  50  85 CALM      30.11R
HILL AFB       LGT RAIN  55  50  82 SW10      30.11R
LOGAN          LGT RAIN  50  47  89 N3        30.08S
OGDEN          LGT RAIN  55  51  86 SW7       30.10R
PROVO AIRPORT  MOSUNNY   59  46  63 SW6       30.11R
SALT LAKE CITY PTSUNNY   58  49  72 W17       30.10R
VERNAL         MOSUNNY   56  46  69 E7        30.16S
WENDOVER       MOSUNNY   55  48  76 NE5       30.09R
HEBER CITY     MOSUNNY   54  43  66 CALM      30.12F
WEST JORDAN    CLOUDY    57  48  72 NW7       30.11R

$$

UTZ012>022-026-027-271700-

SOUTHERN/CENTRAL UTAH

CITY           SKY/WX    TMP DP  RH WIND       PRES   REMARKS
BLANDING       SUNNY     63  42  46 S3        30.25S
BRYCE CANYON   SUNNY     57  29  34 SE6       30.23F
CEDAR CITY     SUNNY     60  43  53 VRB3      30.11F
DELTA          SUNNY     60  46  59 NE8       30.11F
HANKSVILLE     PTSUNNY   64  45  48 SE5       30.13S
MILFORD        MOSUNNY   61  49  64 S10       30.09S
MOAB/CYNLANDS  SUNNY     64  47  53 VRB6      30.11S
PRICE          SUNNY     59  40  49 MISG      30.16F
ST GEORGE      MOSUNNY   70  37  30 NW3       30.04F

$$

REGIONAL REPORTS     COLORADO/ARIZONA

CITY           SKY/WX    TMP DP  RH WIND       PRES   REMARKS
CRAIG, CO      PTSUNNY   58  42  55 NW7       30.17F
GRAND JUNCTION SUNNY     61  46  57 E7        30.14F
RIFLE          SUNNY     57  45  64 N3        30.17F
MONTROSE       SUNNY     60  47  61 N6        30.19S
CORTEZ         SUNNY     63  40  42 CALM      30.17F
PAGE, AZ       PTSUNNY   67  43  41 N6        30.10S
GRAND CANYON   MOSUNNY   63  25  23 SW7       30.20S
KINGMAN        MOSUNNY   75  35  23 CALM      30.02S
FLAGSTAFF      SUNNY     63  26  24 MISG      30.22S

$$

REGIONAL REPORTS    NEVADA/IDAHO/WYOMING

CITY           SKY/WX    TMP DP  RH WIND       PRES   REMARKS
LAS VEGAS, NV  MOSUNNY   78  33  19 E3        29.92R
ELY            PTSUNNY   54  43  66 N15       30.16R
ELKO           SUNNY     57  46  66 CALM      30.08S
POCATELLO, ID  PTSUNNY   58  49  72 CALM      30.06S
BURLEY         SUNNY     61  47  59 VRB3      30.03S
EVANSTON, WY   CLOUDY    54  41  61 CALM      30.16F
ROCK SPRINGS   SUNNY     53  42  66 SW17      30.17R
KEMMERER       PTSUNNY   50  41  71 CALM      30.18S

$$


USA.gov is the U.S. government's official web portal to all federal, state and local government web resources and services.